Jersey, United Kingdom

2:51 AM BST on March 26, 2017 (GMT +0100)
Jersey

Weather History for EGJJ - October, 2012

Change the Weather History Date:

Tuesday, October 16, 2012

  Actual Average Record
Temperature  
Mean Temperature 55 °F -  
Max Temperature 59 °F 54 °F 64 °F (2006)
Min Temperature 51 °F 48 °F 46 °F (2003)
Degree Days  
Heating Degree Days 10    
Growing Degree Days 5 (Base 50)    
Moisture  
Dew Point 47 °F    
Average Humidity 71    
Maximum Humidity 88    
Minimum Humidity 58    
Precipitation  
Precipitation 0.00 in - - ()
Sea Level Pressure  
Sea Level Pressure 29.67 in    
Wind  
Wind Speed 18 mph ()    
Max Wind Speed 26 mph    
Max Gust Speed 33 mph    
Visibility 6.8 miles    
Events Rain    
Averages and records for this station are not official NWS values.
T = Trace of Precipitation, MM = Missing Value Source: Averaged Metar Reports

Daily Weather History Graph

Daily Weather History Graph

Search for Another Location

Airport or City:

Trip Planner

Search our weather history database for the weather conditions in past years. The results will help you decide how hot, cold, wet, or windy it might be!

Date:

Astronomy

Oct. 16, 2012 Rise Set
Actual Time 7:31 AM BST 6:16 PM BST
Civil Twilight 6:59 AM BST 6:48 PM BST
Nautical Twilight 6:22 AM BST 7:25 PM BST
Astronomical Twilight 5:45 AM BST 8:01 PM BST
Moon 8:47 AM BST (10/16) 6:37 PM BST (10/16)
Length of Visible Light 11h 48m
Length of Day
10h 44m
New Moon, 1% of the Moon is Illuminated
Oct 16
New Moon
Oct 22
First Quarter
Oct 29
Full
Nov 7
Last Quarter
Nov 13
New

Hourly Weather History & Observations

Time (BST) Temp. Dew Point Humidity Pressure Visibility Wind Dir Wind Speed Gust Speed Precip Events Conditions
1:00 AM 55 °F 51 °F 81% 29.57 in 7 mi West 21.9 mph - - Rain Light Rain
3:50 AM 53.6 °F 46.4 °F 77% 29.59 in 6.2 mi West 24.2 mph - N/A   Mostly Cloudy
4:00 AM 55 °F 47 °F 65% 29.61 in 12 mi West 21.9 mph - -   Mostly Cloudy
4:20 AM 53.6 °F 44.6 °F 72% 29.59 in 6.2 mi West 23.0 mph - N/A   Scattered Clouds
4:50 AM 53.6 °F 44.6 °F 72% 29.59 in 6.2 mi West 21.9 mph 33.4 mph N/A Rain Light Rain Showers
5:20 AM 53.6 °F 46.4 °F 77% 29.62 in 6.2 mi West 19.6 mph - N/A   Scattered Clouds
5:50 AM 53.6 °F 46.4 °F 77% 29.62 in 6.2 mi West 25.3 mph - N/A Rain Light Rain Showers
6:20 AM 53.6 °F 46.4 °F 77% 29.62 in 6.2 mi West 26.5 mph - N/A   Partly Cloudy
6:50 AM 53.6 °F 44.6 °F 72% 29.65 in 6.2 mi West 26.5 mph - N/A   Partly Cloudy
7:20 AM 53.6 °F 46.4 °F 77% 29.65 in 6.2 mi West 24.2 mph - N/A   Partly Cloudy
7:50 AM 53.6 °F 46.4 °F 77% 29.65 in 6.2 mi West 24.2 mph - N/A   Partly Cloudy
8:20 AM 55.4 °F 44.6 °F 67% 29.65 in 6.2 mi West 18.4 mph - N/A   Partly Cloudy
8:50 AM 55.4 °F 46.4 °F 72% 29.68 in 6.2 mi West 19.6 mph - N/A   Partly Cloudy
9:20 AM 51.8 °F 48.2 °F 88% 29.68 in 6.2 mi West 13.8 mph 25.3 mph N/A   Scattered Clouds
9:50 AM 55.4 °F 48.2 °F 77% 29.71 in 6.2 mi West 24.2 mph - N/A   Partly Cloudy
10:00 AM 55 °F 47 °F 68% 29.72 in 16 mi West 18.4 mph - - Rain Light Rain Showers
10:20 AM 55.4 °F 44.6 °F 67% 29.71 in 6.2 mi West 18.4 mph - N/A   Partly Cloudy
10:50 AM 57.2 °F 46.4 °F 67% 29.71 in 6.2 mi West 16.1 mph - N/A   Partly Cloudy
11:20 AM 55.4 °F 44.6 °F 67% 29.74 in 6.2 mi West 16.1 mph - N/A   Partly Cloudy
11:50 AM 59.0 °F 46.4 °F 63% 29.74 in 6.2 mi West 15.0 mph - N/A   Partly Cloudy
12:20 PM 57.2 °F 46.4 °F 67% 29.74 in 6.2 mi West 16.1 mph - N/A   Partly Cloudy
12:50 PM 59.0 °F 48.2 °F 67% 29.74 in 6.2 mi West 16.1 mph - N/A   Partly Cloudy
1:00 PM 58 °F 49 °F 62% 29.76 in 22 mi West 15.0 mph - -   Partly Cloudy
1:20 PM 59.0 °F 50.0 °F 72% 29.74 in 6.2 mi SW 17.3 mph - N/A   Scattered Clouds
1:50 PM 59.0 °F 50.0 °F 72% 29.74 in 6.2 mi West 13.8 mph - N/A   Partly Cloudy
2:20 PM 59.0 °F 48.2 °F 67% 29.74 in 6.2 mi WSW 13.8 mph - N/A   Partly Cloudy
2:50 PM 59.0 °F 46.4 °F 63% 29.74 in 6.2 mi WSW 12.7 mph - N/A   Partly Cloudy
3:20 PM 59.0 °F 50.0 °F 72% 29.71 in 6.2 mi South 15.0 mph - N/A   Partly Cloudy
3:50 PM 59.0 °F 48.2 °F 67% 29.71 in 6.2 mi South 10.4 mph - N/A   Partly Cloudy
4:00 PM 58 °F 47 °F 58% 29.72 in 22 mi South 13.8 mph - -   Scattered Clouds
4:20 PM 57.2 °F 46.4 °F 67% 29.71 in 6.2 mi South 13.8 mph - N/A   Partly Cloudy
4:50 PM 57.2 °F 46.4 °F 67% 29.68 in 6.2 mi South 13.8 mph - N/A   Partly Cloudy
5:20 PM 55.4 °F 48.2 °F 77% 29.68 in 6.2 mi SSE 13.8 mph - N/A   Partly Cloudy
5:50 PM 55.4 °F 48.2 °F 77% 29.68 in 6.2 mi SSE 12.7 mph - N/A   Partly Cloudy
6:20 PM 55.4 °F 44.6 °F 67% 29.68 in 6.2 mi South 16.1 mph - N/A   Partly Cloudy
6:50 PM 55.4 °F 46.4 °F 72% 29.65 in 6.2 mi SSE 15.0 mph - N/A   Partly Cloudy
7:00 PM 56 °F 47 °F 63% 29.67 in 28 mi SSE 15.0 mph - -   Scattered Clouds
7:20 PM 57.2 °F 48.2 °F 72% 29.65 in 6.2 mi SSE 16.1 mph - N/A   Scattered Clouds
7:50 PM 57.2 °F 48.2 °F 72% 29.65 in 6.2 mi SSE 18.4 mph - N/A   Partly Cloudy
8:20 PM 57.2 °F 48.2 °F 72% 29.62 in 6.2 mi SSE 17.3 mph - N/A   Partly Cloudy
8:50 PM 57.2 °F 48.2 °F 72% 29.62 in 6.2 mi SSE 18.4 mph - N/A   Mostly Cloudy
10:00 PM 56 °F 51 °F 76% 29.57 in 12 mi SE 23.0 mph - - Rain Light Rain